Home > Weather > Naha > Past weeks

Flag for Japan Weather for the Past 2 Weeks in Naha, Okinawa, Japan

Now
55 °F

Sprinkles. Partly cloudy.


Feels Like: 50 °F
Forecast: 53 / 59 °F
Wind: 24 mph from North

Location: Naha Airport

Current Time: Feb 7, 2016 at 3:47:42 AM

Latest Report: Feb 7, 2016 at 3:00 AM


Visibility: N/A

Pressure: 30.15 "Hg

Humidity: 59%

Dew point: 41 °F

Location of NahaLocation

Historic Weather in Naha — Graph

°F

Naha Temperature Yesterday

Maximum temperature yesterday: 63 °F (at 12:00 AM)
Minimum temperature yesterday: 55 °F (at 3:30 PM)
Average temperature yesterday: 59 °F

High & Low Weather Summary for the Past Weeks

 TemperatureHumidityPressure
High77 °F (Jan 29, 2:30 PM)94% (Jan 23, 2:00 AM)30.45 "Hg (Jan 23, 2:00 AM)
Low43 °F (Jan 25, 12:00 AM)44% (Feb 7, 12:30 AM)29.95 "Hg (Jan 23, 2:00 AM)
Average61 °F71%30.18 "Hg
* Reported Jan 23 2:00 AM — Feb 7 2:30 AM, Naha, Weather by CustomWeather, © 2016

Note: Actual official high and low records may vary slightly from our data, if they occured in-between our weather recording intervals... More about our weather records

Advertising

Naha Weather History for the Previous 24 Hours

 ConditionsComfort  
Time TempWeatherWind HumidityBarometerVisibility
2:30 AM
Sun, Feb 7
55 °FScattered showers. Passing clouds.24 mph59%30.15 "HgN/A
2:00 AM54 °FScattered showers. Partly cloudy.25 mph58%30.15 "HgN/A
1:30 AM55 °FPartly cloudy.24 mph51%30.15 "HgN/A
1:00 AM54 °FSprinkles. Partly cloudy.24 mph58%30.15 "HgN/A
12:30 AM55 °FPassing clouds.24 mph44%30.15 "HgN/A
12:00 AM55 °FPartly cloudy.24 mph51%30.18 "HgN/A
11:30 PM
Sat, Feb 6
55 °FPartly cloudy.28 mph55%30.15 "HgN/A
11:00 PM55 °FPartly cloudy.28 mph51%30.15 "HgN/A
10:30 PM55 °FPartly cloudy.29 mph55%30.15 "HgN/A
10:00 PM55 °FPartly cloudy.28 mph63%30.15 "HgN/A
9:30 PM55 °FPartly cloudy.28 mph59%30.15 "HgN/A
9:00 PM55 °FPartly cloudy.30 mph63%30.12 "HgN/A
8:30 PM55 °FPartly cloudy.30 mph67%30.12 "HgN/A
8:00 PM55 °FSprinkles. Partly cloudy.30 mph72%30.12 "Hg6 mi
7:49 PM57 °FSprinkles. Partly cloudy.26 mph63%30.12 "Hg6 mi
7:30 PM57 °FSprinkles. Partly cloudy.29 mph67%30.12 "Hg6 mi
7:00 PM57 °FSprinkles. Partly cloudy.31 mph67%30.12 "Hg6 mi
6:30 PM57 °FSprinkles. Partly cloudy.28 mph67%30.09 "Hg6 mi
6:00 PM57 °FSprinkles. Broken clouds.29 mph67%30.09 "HgN/A
5:30 PM57 °FSprinkles. Broken clouds.28 mph72%30.07 "HgN/A
5:00 PM55 °FSprinkles. Broken clouds.31 mph77%30.07 "HgN/A
4:48 PM55 °FSprinkles. Broken clouds.31 mph77%30.07 "HgN/A
4:30 PM55 °FSprinkles. Broken clouds.32 mph82%30.04 "HgN/A
4:00 PM57 °FSprinkles. Broken clouds.32 mph77%30.04 "HgN/A
3:30 PM55 °FSprinkles. Broken clouds.32 mph88%30.04 "Hg3 mi
3:00 PM57 °FRain showers. Broken clouds.29 mph82%30.01 "Hg2 mi
2:48 PM57 °FRain showers. Broken clouds.28 mph82%30.01 "Hg2 mi
2:30 PM57 °FRain showers. Broken clouds.24 mph82%30.01 "Hg4 mi
2:00 PM57 °FSprinkles. Broken clouds.25 mph77%30.01 "HgN/A
1:00 PM61 °FSprinkles. Broken clouds.26 mph72%30.01 "HgN/A
12:30 PM63 °FPartly sunny.22 mph64%30.01 "HgN/A
12:00 PM63 °FScattered clouds.25 mph68%30.01 "HgN/A
11:30 AM61 °FBroken clouds.24 mph72%30.04 "HgN/A
11:00 AM63 °FBroken clouds.16 mph64%30.04 "HgN/A
10:00 AM61 °FScattered showers. Broken clouds.16 mph72%30.07 "HgN/A
9:30 AM61 °FSprinkles. Broken clouds.17 mph72%30.04 "HgN/A
9:00 AM59 °FRain showers. Broken clouds.13 mph82%30.04 "HgN/A
8:30 AM59 °FScattered showers. Partly sunny.18 mph77%30.04 "HgN/A
8:04 AM59 °FRain showers. Broken clouds.17 mph82%30.04 "HgN/A
7:30 AM61 °FSprinkles. Broken clouds.7 mph68%30.01 "HgN/A
7:00 AM61 °FPartly cloudy.9 mph68%30.01 "HgN/A
6:30 AM61 °FPartly cloudy.10 mph72%29.98 "HgN/A
6:00 AM61 °FPassing clouds.10 mph72%29.98 "HgN/A
5:30 AM63 °FPassing clouds.15 mph68%29.95 "HgN/A
5:00 AM61 °FSprinkles. Passing clouds.12 mph77%29.98 "HgN/A
4:30 AM61 °FPassing clouds.13 mph77%29.98 "HgN/A
4:00 AM63 °FScattered showers. Passing clouds.12 mph73%29.98 "HgN/A
3:30 AM61 °FScattered showers. Passing clouds.10 mph77%29.95 "HgN/A
3:00 AM61 °FPassing clouds.10 mph77%29.95 "HgN/A
Weather by CustomWeather, © 2016

See weather overviewHow to use our weather pages